Regional Weather Roundup
Issued by NWS Charleston, WV

Home | Current Version | Previous Version | Text Only | Print | Product List | Glossary On
Versions: 1 2 3 4 5 6 7 8 9 10 11 12 13 14 15 16 17 18 19 20 21 22 23 24 25 26 27 28 29 30 31 32 33 34 35 36 37 38 39 40 41 42 43 44 45 46 47 48 49 50
000
ASUS41 KRLX 190910
RWRRLX
West Virginia Regional Weather Roundup
National Weather Service Charleston WV
500 AM EDT FRI SEP 19 2014

Note: "fair" indicates few or no clouds below 12,000 feet with no
significant weather and/or obstructions to visibility.

WVZ003-191000-
Northern Panhandle of West Virginia

CITY           SKY/WX    TMP DP  RH WIND       PRES   REMARKS
WHEELING       CLEAR     50  47  89 NE7       30.19S
$$

WVZ009-191000-
Northwest West Virginia

CITY           SKY/WX    TMP DP  RH WIND       PRES   REMARKS
PARKERSBURG    CLEAR     46  44  93 CALM      30.19S
$$

WVZ006-191000-
Western West Virginia

CITY           SKY/WX    TMP DP  RH WIND       PRES   REMARKS
HUNTINGTON     CLEAR     52  49  89 N7        30.13R
$$

WVZ015-191000-
West Central West Virginia

CITY           SKY/WX    TMP DP  RH WIND       PRES   REMARKS
CHARLESTON     FOG       52  52 100 CALM      30.13R VSB 1/4
$$

WVZ031-191000-
North Central West Virginia

CITY           SKY/WX    TMP DP  RH WIND       PRES   REMARKS
CLARKSBURG     MOCLDY    49  48  97 CALM      30.17R
MORGANTOWN     MOCLDY    52  48  86 N3        30.20R FOG
$$

WVZ035-042-045-191000-
South Central West Virginia

CITY           SKY/WX    TMP DP  RH WIND       PRES   REMARKS
BECKLEY        CLOUDY    54  51  90 CALM      30.15R
BLUEFIELD      CLEAR     58  52  80 NE5       30.16R
LEWISBURG      CLOUDY    56  52  85 CALM      30.17R
$$

WVZ047-191000-
Northern Mountains of West Virginia

CITY           SKY/WX    TMP DP  RH WIND       PRES   REMARKS
ELKINS         FOG       48  48 100 CALM      30.19R VSB 1/4
$$

WVZ052-191000-
Eastern Panhandle of West Virginia

CITY           SKY/WX    TMP DP  RH WIND       PRES   REMARKS
MARTINSBURG    CLOUDY    56  48  74 N7        30.19R
PETERSBURG     CLOUDY    52  50  92 CALM      30.20R
$$


USA.gov is the U.S. government's official web portal to all federal, state and local government web resources and services.